DW8306 Weather Reports


time (UTC)temp
F
wind
direction
speed
knots
gust
knots
rain 1hr
in
rain 24hr
in
rain mn
in
humidity
%
barometer
mb
20260906041505 76 4 0.0 0.0 0.01 0.18 0.18 94 1011.0
20260906040006 76 4 0.0 0.0 0.01 0.18 0.18 94 1010.9
20260906034504 76 4 0.0 0.0 0.01 0.18 0.18 94 1010.8
20260906033002 76 4 0.0 0.0 0.01 0.18 0.18 94 1010.9
20260906031503 76 4 0.0 0.0 0.00 0.17 0.17 94 1011.0
20260906030004 76 4 0.0 0.0 0.00 0.17 0.17 93 1010.9
20260906024501 76 4 0.0 0.9 0.00 0.17 0.17 94 1010.8
20260906023121 76 4 0.0 0.0 0.00 0.17 0.17 93 1010.8
20260906021612 76 4 0.0 0.0 0.00 0.17 0.17 93 1010.6
20260906014609 76 349 0.0 3.5 0.00 0.17 0.17 92 1010.7
20260906013057 77 83 0.0 0.9 0.00 0.17 0.17 92 1010.7
20260906011556 77 93 0.0 0.9 0.05 0.17 0.17 92 1011.2
20260906010054 77 124 0.0 4.3 0.17 0.17 0.17 91 1011.4
20260906004556 78 278 0.9 4.3 0.17 0.17 0.17 91 1011.5
20260906003103 78 146 0.0 3.5 0.17 0.17 0.17 89 1011.9
20260906001552 80 198 0.0 5.2 0.12 0.12 0.12 85 1012.8
20260906000052 83 268 0.0 5.2 0.00 0.00 0.00 76 1013.3
20260905234558 84 35 1.7 7.8 0.00 0.00 0.00 76 1012.2
20260905233051 85 97 0.0 4.3 0.00 0.00 0.00 74 1011.4
20260905231551 87 209 0.9 7.0 0.00 0.00 0.00 72 1011.5
20260905230052 90 120 2.6 7.8 0.00 0.00 0.00 67 1010.7
20260905224549 93 215 0.0 0.9 0.00 0.00 0.00 62 1010.3
20260905223050 94 135 0.0 1.7 0.00 0.00 0.00 59 1009.7
20260905221548 96 233 0.0 0.9 0.00 0.00 0.00 59 1009.6
20260905220046 96 84 0.9 6.1 0.00 0.00 0.00 56 1009.6
20260905214552 97 157 0.0 4.3 0.00 0.00 0.00 58 1009.7
20260905213046 97 39 0.9 6.1 0.00 0.00 0.00 56 1009.8
20260905211543 96 73 0.9 5.2 0.00 0.00 0.00 58 1009.6
20260905210045 95 91 3.5 7.8 0.00 0.00 0.00 56 1009.9
20260905204540 97 120 0.9 6.1 0.00 0.00 0.00 56 1010.0
20260905203040 94 64 0.9 7.0 0.00 0.00 0.00 60 1010.3
20260905201539 94 58 3.5 7.0 0.00 0.00 0.00 60 1010.6
20260905200042 94 237 0.9 6.1 0.00 0.00 0.00 64 1010.7
20260905194532 95 57 2.6 9.6 0.00 0.00 0.00 62 1010.9
20260905193032 96 87 4.3 8.7 0.00 0.00 0.00 57 1011.0
20260905191529 96 85 3.5 8.7 0.00 0.00 0.00 56 1011.1
20260905190026 96 38 2.6 6.1 0.00 0.00 0.00 54 1011.2
20260905184532 95 124 0.9 5.2 0.00 0.00 0.00 58 1011.5
20260905183028 96 97 3.5 9.6 0.00 0.00 0.00 55 1011.6
20260905181521 97 83 0.9 5.2 0.00 0.00 0.00 55 1012.0
20260905180017 95 44 2.6 7.0 0.00 0.00 0.00 56 1012.0
20260905174528 93 104 0.9 7.0 0.00 0.00 0.00 62 1012.4
20260905173015 94 10 0.0 4.3 0.00 0.00 0.00 62 1012.7
20260905171511 94 59 1.7 7.0 0.00 0.00 0.00 61 1012.8
20260905170009 94 335 1.7 7.8 0.00 0.00 0.00 59 1012.9
20260905164506 93 167 1.7 7.8 0.00 0.00 0.00 60 1013.1
20260905163007 92 49 2.6 7.0 0.00 0.00 0.00 63 1013.1
20260905161600 92 90 0.9 4.3 0.00 0.00 0.00 67 1013.2
20260905160059 90 268 0.9 3.5 0.00 0.00 0.00 69 1013.2
20260905154556 88 53 0.0 0.0 0.00 0.00 0.00 73 1013.2
20260905153054 87 60 0.0 0.0 0.00 0.00 0.00 76 1013.4
20260905151547 85 266 0.0 0.0 0.00 0.00 0.00 78 1013.3
20260905150044 84 273 0.0 0.0 0.00 0.00 0.00 79 1013.3
20260905144549 84 222 0.0 0.0 0.00 0.00 0.00 81 1013.4
20260905143038 83 276 0.0 0.0 0.00 0.00 0.00 82 1013.3
20260905141601 82 4 0.0 0.0 0.00 0.00 0.00 83 1013.4
20260905140033 81 4 0.0 0.0 0.00 0.00 0.00 86 1013.4
20260905134532 79 4 0.0 0.0 0.00 0.00 0.00 89 1013.5
20260905133040 78 4 0.0 0.0 0.00 0.00 0.00 90 1013.4
20260905131542 78 4 0.0 0.0 0.00 0.00 0.00 92 1013.2
20260905130023 77 4 0.0 0.0 0.00 0.00 0.00 92 1013.1
20260905124520 76 4 0.0 0.0 0.00 0.00 0.00 92 1013.2
20260905123018 76 4 0.0 0.0 0.00 0.00 0.00 92 1013.0
20260905121517 76 4 0.0 0.0 0.00 0.00 0.00 92 1012.9
20260905120016 76 4 0.0 0.0 0.00 0.00 0.00 91 1012.8
20260905114516 76 4 0.0 0.0 0.00 0.00 0.00 91 1012.9
20260905113016 77 4 0.0 0.0 0.00 0.00 0.00 90 1012.7
20260905111512 77 4 0.0 0.0 0.00 0.00 0.00 90 1012.6
20260905110015 77 4 0.0 0.0 0.00 0.00 0.00 90 1012.6
20260905104509 77 4 0.0 0.0 0.00 0.00 0.00 90 1012.5
20260905103008 77 4 0.0 0.0 0.00 0.00 0.00 90 1012.5
20260905101513 77 4 0.0 0.0 0.00 0.00 0.00 90 1012.5
20260905100006 77 4 0.0 0.0 0.00 0.00 0.00 89 1012.3
20260905094506 77 4 0.0 0.0 0.00 0.00 0.00 89 1012.1
20260905093005 77 4 0.0 0.0 0.00 0.00 0.00 88 1012.0
20260905091504 78 4 0.0 0.0 0.00 0.00 0.00 88 1012.0
20260905090003 78 4 0.0 0.0 0.00 0.00 0.00 88 1012.0
20260905084502 78 4 0.0 0.0 0.00 0.00 0.00 88 1012.1
20260905083002 78 4 0.0 0.0 0.00 0.00 0.00 88 1012.2
20260905081603 78 4 0.0 0.0 0.00 0.00 0.00 87 1012.2
20260905080059 78 4 0.0 0.0 0.00 0.00 0.00 87 1012.2
20260905074602 78 4 0.0 0.0 0.00 0.00 0.00 87 1012.2
20260905073105 78 4 0.0 0.0 0.00 0.00 0.00 86 1012.3
20260905071556 78 4 0.0 0.0 0.00 0.00 0.00 86 1012.4
20260905070054 79 4 0.0 0.0 0.00 0.00 0.00 85 1012.5
20260905064608 79 4 0.0 0.0 0.00 0.00 0.00 84 1012.5
20260905063056 79 4 0.0 0.0 0.00 0.00 0.00 83 1012.3
20260905061612 80 4 0.0 0.0 0.00 0.00 0.00 83 1012.3
20260905060049 80 4 0.0 0.0 0.00 0.00 0.00 82 1012.4
20260905054547 80 4 0.0 0.0 0.00 0.00 0.00 82 1012.5
20260905053042 81 4 0.0 0.0 0.00 0.00 0.00 81 1012.6
20260905051549 81 4 0.0 0.0 0.00 0.00 0.00 81 1012.4
20260905050039 81 4 0.0 0.0 0.00 0.00 0.00 80 1012.4
20260905044550 81 39 0.0 0.0 0.00 0.00 0.00 80 1012.5
20260905043034 81 35 0.0 0.0 0.00 0.00 0.00 80 1012.6